Location: Ferchesar
(52.6477°N, 12.4298°E)
Time: 17:36:33
(UTC+01:00)

deb Explorer IX - All Passes

Search period start: 27 February 2021 00:00
Search period end: 09 March 2021 00:00
Orbit: 537 x 1102 km, 38.8° (Epoch: 27 February)

Date Brightness Start Highest point End Pass type
(mag) Time Alt. Az. Time Alt. Az. Time Alt. Az.
27 Feb - 05:46:14 10° SSW 05:48:30 14° S 05:50:54 10° SE visible
27 Feb - 07:31:43 10° SW 07:34:09 14° S 07:36:46 10° SSE daylight
28 Feb - 05:22:44 10° SSW 05:24:48 13° S 05:27:00 10° SE visible
28 Feb - 07:08:15 10° SW 07:10:27 13° S 07:12:46 10° SSE daylight
01 Mar - 04:59:14 10° SSW 05:01:07 13° S 05:03:05 10° SE visible
01 Mar - 06:44:49 10° SW 06:46:45 13° S 06:48:46 10° SSE daylight
02 Mar - 04:35:44 10° SSW 04:37:26 12° S 04:39:12 10° SSE visible
02 Mar - 06:21:23 10° SSW 06:23:03 12° S 06:24:46 10° SSE visible
03 Mar - 04:12:12 10° SSW 04:13:45 12° S 04:15:22 10° SSE visible
03 Mar - 05:57:57 10° SSW 05:59:20 11° S 06:00:46 10° S visible
04 Mar - 03:48:37 10° SSW 03:50:04 12° S 03:51:33 10° SSE visible
04 Mar - 05:34:33 10° SSW 05:35:39 11° S 05:36:47 10° S visible
05 Mar - 03:25:01 10° SSW 03:26:23 11° S 03:27:46 10° SSE visible
05 Mar - 05:11:09 10° SSW 05:11:57 10° S 05:12:45 10° S visible
06 Mar - 03:01:21 10° SSW 03:02:42 11° S 03:04:02 10° SSE visible
06 Mar - 04:47:50 10° SSW 04:48:15 10° S 04:48:40 10° S visible
07 Mar - 02:37:37 10° SSW 02:39:00 11° S 02:40:22 10° SSE night (unlit)
08 Mar - 02:13:51 10° SSW 02:15:18 12° S 02:16:44 10° SSE night (unlit)
